Regional Weather Roundup
Issued by NWS

Home | Current Version | Previous Version | Text Only | Print | Product List | Glossary Off
Versions: 1 2 3 4 5 6 7 8 9 10 11 12 13 14 15 16 17 18 19 20 21 22 23 24 25 26 27 28 29 30 31 32 33 34 35 36 37 38 39 40 41 42 43 44 45 46 47 48 49 50

000
ASUS43 KDMX 061707
RWRIA

WEATHER ROUNDUP FOR IOWA
NATIONAL WEATHER SERVICE DES MOINES IA
1200 PM CDT WED MAY 06 2015

NOTE: "FAIR" INDICATES FEW OR NO CLOUDS BELOW 12,000 FEET WITH NO
SIGNIFICANT WEATHER AND/OR OBSTRUCTIONS TO VISIBILITY.

* - THESE STATIONS ARE NOT NWS STATIONS...THUS NOT UNDER NWS
QUALITY CONTROL.  THEY ALSO DO NOT REPORT WEATHER SUCH
AS PRECIPITATION OR FOG.

IAZ001>003-012>014-020>022-031>034-043>046-061800-
   NORTHWEST IOWA

CITY           SKY/WX    TMP DP  RH WIND       PRES   REMARKS
CARROLL *      CLOUDY    68  59  73 S23G29    29.90S
CHEROKEE *     CLOUDY    68  59  73 SE21G29   29.87S
DENISON *      PTSUNNY   68  63  83 S18G30    29.85F
LE MARS *      CLOUDY    68  59  73 SE20G29   29.83F
ORANGE CITY *  DRIZZLE   63  57  82 S15G21    29.84S
SHELDON *      CLOUDY    70 N/A N/A SE29G35   29.84S
SIOUX CITY     LGT RAIN  64  60  87 S14       29.83S
SPENCER        CLOUDY    71  61  70 SE24G37   29.88S
STORM LAKE *   CLOUDY    68  59  73 S17G25    29.89S
$$

IAZ055>058-069>071-079>083-090>094-061800-
   SOUTHWEST IOWA

CITY           SKY/WX    TMP DP  RH WIND       PRES   REMARKS
ATLANTIC *     MOSUNNY   72  59  64 S23       29.89F
AUDUBON *      MOSUNNY   70  61  73 S17G25    29.91F
CLARINDA *     MOSUNNY   70  61  73 S17       29.92S
COUNCIL BLFS * PTSUNNY   70  64  83 S18G30    29.87S
CRESTON *      PTSUNNY   70  61  73 S24G31    29.94F
HARLAN  *      PTSUNNY   72  66  83 S24G33    29.90F
LAMONI         CLOUDY    72  59  63 S21G32    29.97R
RED OAK *      PTSUNNY   72  61  68 S24G31    29.90R
SHENANDOAH *   PTSUNNY   72  63  73 S25G32    29.89S
$$

IAZ047>049-059>061-072>074-084-061800-
   CENTRAL IOWA

CITY           SKY/WX    TMP DP  RH WIND       PRES   REMARKS
AMES           CLOUDY    74  60  61 SE17G29   29.93F
ANKENY *       PTSUNNY   75  59  57 SE16G30   29.93S
CHARITON *     CLOUDY    73  59  60 S18G30    29.97R
DES MOINES     CLOUDY    75  58  55 S24G31    29.95R
GRINNELL*      PTSUNNY   77  59  53 SE26G35   29.99F
KNOXVILLE *    MOSUNNY   75  57  53 S16G26    29.94F
MARSHALLTOWN   CLOUDY    75  59  57 SE23G30   29.97F
PELLA *        PTSUNNY   77  63  61 SE17G26   29.98F
PERRY *        CLOUDY    70  59  68 S20       29.93R
$$

IAZ004>006-015-016-023>025-035-036-061800-
   NORTH CENTRAL IOWA

CITY           SKY/WX    TMP DP  RH WIND       PRES   REMARKS
ALGONA *       SUNNY     72  52  49 SE20G30   29.91F
CLARION *      SUNNY     72  66  83 SE23G30   29.94F
ESTHERVILLE    PTSUNNY   72  61  68 SE25      29.89F
FORT DODGE *   PTSUNNY   73  61  64 SE23      29.92S
MASON CITY     PTSUNNY   68  62  81 SE18      29.99F HAZE
FOREST CITY *  MOSUNNY   64  63  94 SE15G23   29.96F FOG
IOWA FALLS *     N/A     72  63  73 SE18G24   29.97F
$$

IAZ007>011-017>019-026>030-037>042-050>054-066-061800-
   NORTHEAST IOWA

CITY           SKY/WX    TMP DP  RH WIND       PRES   REMARKS
CEDAR RAPIDS   MOSUNNY   76  62  62 SE14G23   30.04F
CHARLES CITY * SUNNY     68  64  88 SE13G23   30.02F
CLINTON *      SUNNY     72  63  73 SE10      30.13F
DECORAH *      MOSUNNY   64  59  82 SE13G18   30.06F
DUBUQUE        MOSUNNY   67  60  78 E8        30.10F
MONTICELLO *   MOSUNNY   68  64  88 SE12      30.08F
OELWEIN *      SUNNY     70  63  78 SE15G22   30.05F
WATERLOO       CLOUDY    71  62  73 SE12      30.00F
$$

IAZ064-065-067-068-078-061800-
   EAST CENTRAL IOWA

CITY           SKY/WX    TMP DP  RH WIND       PRES   REMARKS
DAVENPORT      SUNNY     75  60  59 S15       30.09F
IOWA CITY      SUNNY     78  62  57 SE15      30.05F HX  80
MT. PLEASANT * MOSUNNY   77  57  50 S20G28    30.05F
MUSCATINE *    SUNNY     79  59  50 S18       30.06F HX  80
QUAD CITIES    SUNNY     78  60  53 S15       30.08F
$$

IAZ062-063-075>077-085>089-095>099-061800-
   SOUTHEAST IOWA

CITY           SKY/WX    TMP DP  RH WIND       PRES   REMARKS
BURLINGTON     SUNNY     80  57  45 S18G26    30.06F HX  80
FAIRFIELD *    SUNNY     79  57  47 S25       30.02F HX  80
FORT MADISON * MOSUNNY   79  57  47 S15G24    30.07F HX  80
KEOKUK *       PTSUNNY   79  57  47 S13G21    30.05F HX  80
OSKALOOSA *      N/A     79  59  50 S23G31    29.99F HX  80
CENTERVILLE *  SUNNY     75  63  64 S18       30.00R
OTTUMWA        MOSUNNY   79  60  52 S21G29    29.99F HX  80
WASHINGTON *   SUNNY     81 -31   1 S22G28    30.03F
$$

ABBREVIATIONS USED IN REMARKS
   TC - TEMPERATURES IN CELSIUS
  WCI - WIND CHILL INDEX
   HX - HEAT INDEX
  VSB - VISIBILITY
$$




USA.gov is the U.S. government's official web portal to all federal, state and local government web resources and services.